#timestamp,LO_Frequency,Hit,StdDev 
1581505215.1,286046995.7,N
1581505216.0,286046995.7,N
1581505235.8,286046997.3,N
1581505255.7,286047001.4,N
1581505275.5,286046990.4,N
1581505295.3,286046980.6,N
1581505315.2,286046986.0,N
1581505335.0,286046977.7,N
1581505335.9,286046977.7,N
1581505355.8,286046977.1,N
1581505375.6,286046972.3,N
1581505395.4,286046968.1,N
1581505415.3,286046969.3,N
1581505435.1,286046969.8,N
1581505455.8,286046966.9,N
1581505475.7,286046965.6,N
1581505495.5,286046974.9,N
1581505515.3,286046969.6,N
1581505535.2,286046975.1,N
1581505555.0,286046971.1,N
1581505555.9,286046971.1,N
1581505575.8,286046972.1,N
1581505595.6,286046984.9,N
1581505615.4,286046982.2,N
1581505635.3,286046984.1,N
1581505655.1,286046987.9,N
1581505675.8,286046986.6,N
1581505695.7,286046995.9,N
1581505715.5,286046984.2,N
1581505735.4,286046977.8,N
1581505755.2,286046968.2,Y
1581505775.0,286046987.6,P
1581505775.9,286046987.6,P
1581505795.8,286046989.8,N
1581505815.6,286046984.5,Y
1581505835.5,286046997.5,P
1581505855.3,286047007.1,N
1581505875.1,286047007.9,N
1581505895.9,286047010.3,N
1581505915.7,286047072.8,Y
1581505935.5,286047019.0,P
1581505955.4,286047011.4,N
1581505975.2,286047011.3,N
1581505995.1,286047017.8,N
1581505996.0,286047017.8,N
1581506015.8,286047012.7,N
1581506035.6,286047019.2,Y
1581506055.5,286047002.8,P
1581506075.3,286046996.3,N
1581506095.1,286047010.2,N
1581506115.9,286047007.7,N
1581506135.7,286047013.0,N
1581506155.6,286047012.0,N
1581506175.4,286046999.3,N
1581506195.2,286046989.5,N
1581506215.1,286046983.9,N
1581506216.0,286046983.9,N
1581506235.8,286046978.4,N
1581506285.7,286046979.0,E
1581506295.6,286046993.7,N
1581506315.5,286047001.3,P
1581506335.3,286046994.7,N
1581506355.1,286046980.9,Y
1581506375.9,286046977.5,P
1581506395.7,286046971.0,P
1581506415.6,286046968.4,N
1581506435.4,286046974.6,N
1581506455.2,286046973.9,N
1581506475.1,286046971.9,Y
1581506476.0,286046971.9,P
1581506495.8,286046993.8,N
1581506515.7,286046993.0,N
1581506535.5,286046985.4,N
1581506555.3,286046979.4,N
1581506575.2,286046971.5,Y
1581506595.0,286046980.3,P
1581506595.9,286046980.3,P
1581506615.7,286046971.4,P
1581506635.6,286046967.6,Y
1581506655.4,286046989.3,P
1581506675.3,286046983.4,P
1581506695.1,286046972.5,P
1581506696.0,286046972.5,Y
1581506715.8,286046986.2,P
1581506735.7,286046981.1,P
1581506755.5,286046979.6,P
1581506775.4,286046975.0,Y
1581506795.2,286046990.1,P
1581506815.0,286046997.2,N
1581506815.9,286046997.2,N
1581506835.8,286047002.6,N
1581506855.6,286047004.3,N
1581506875.4,286047001.3,N
1581506895.3,286047004.1,N
1581506915.1,286047000.5,N
1581506935.9,286047008.3,N
1581506955.7,286047007.6,N
1581506975.5,286047004.0,N
1581506995.4,286046998.4,N
1581507015.2,286046999.9,N
1581507035.0,286046997.5,N
1581507035.9,286046997.5,N
1581507055.8,286046995.6,N
1581507075.6,286046993.9,N
1581507095.5,286047000.6,N
1581507115.3,286047003.6,N
1581507135.1,286047015.1,N
1581507155.9,286047009.8,N
1581507175.7,286047013.5,N
1581507195.5,286047013.6,N
1581507215.4,286047004.0,N
1581507235.2,286047000.3,N
1581507255.1,286046998.9,N
1581507256.0,286046998.9,N
1581507275.8,286047002.0,N
1581507295.6,286046996.8,N
1581507315.5,286046989.5,N
1581507335.3,286046987.1,N
1581507355.1,286046990.1,N
1581507375.9,286046992.4,N
1581507395.7,286047001.9,N
1581507415.6,286047010.1,N
1581507435.4,286047017.2,N
1581507455.2,286047023.6,Y
1581507475.1,286047017.7,P
1581507476.0,286047017.7,N
1581507495.8,286047027.5,P
1581507515.7,286047031.1,Y
1581507535.5,286047015.2,P
1581507555.3,286047012.4,P
1581507575.2,286047009.8,P
1581507595.9,286047010.6,Y
1581507615.7,286046996.9,P
1581507635.6,286046990.2,N
1581507655.4,286046980.6,N
1581507675.3,286046974.8,N
1581507695.1,286046967.4,N
1581507696.0,286046967.4,N
1581507715.8,286046965.7,N
1581507735.7,286046960.2,N
1581507755.5,286046964.2,N
1581507775.3,286046966.8,N
1581507795.2,286046974.1,N
1581507815.0,286046987.0,N
1581507815.9,286046987.0,N
1581507835.8,286046992.3,N
1581507855.6,286046999.8,N
1581507875.4,286047008.3,N
1581507895.3,286047003.0,N
1581507915.1,286046998.7,N
1581507935.8,286046999.8,N
1581507955.7,286046999.4,N
1581507975.5,286047000.1,N
1581507995.3,286047008.4,N
1581508015.2,286047013.9,N
1581508035.0,286047006.2,N
1581508035.9,286047006.2,N
1581508055.8,286047010.9,N
1581508075.6,286047019.1,N
1581508095.4,286047030.0,N
1581508115.3,286047036.7,N
1581508135.1,286047033.1,N
1581508155.9,286047023.7,N
1581508175.7,286047021.6,N
1581508195.5,286047013.1,N
1581508215.4,286047001.5,N
1581508235.2,286046996.7,N
1581508255.0,286046997.5,N
1581508255.9,286046997.5,N
1581508275.8,286046994.6,N
1581508295.6,286047006.7,N
1581508315.5,286047011.2,N
1581508335.3,286047017.2,N
1581508355.1,286047027.4,N
1581508375.9,286047031.2,N
1581508395.7,286047020.3,N
1581508415.5,286047014.4,N
1581508435.4,286047019.8,N
1581508455.2,286047023.0,N
1581508475.0,286047024.2,N
1581508476.0,286047024.2,N
1581508495.8,286047031.4,N
1581508515.6,286047025.3,N
1581508535.5,286047025.8,N
1581508555.3,286047022.3,N
1581508575.1,286047016.0,N
1581508595.9,286047009.5,N
1581508615.7,286047006.7,N
1581508635.5,286047013.3,N
1581508655.4,286047012.7,N
1581508675.2,286047013.8,N
1581508695.1,286047016.2,N
1581508696.0,286047016.2,N
1581508715.8,286047013.5,N
1581508735.6,286047011.5,N
1581508755.5,286047010.7,N
1581508775.3,286047014.2,N
1581508795.1,286047015.6,N
